CST,Max TemperatureF,Mean TemperatureF,Min TemperatureF,Max Dew PointF,MeanDew PointF,Min DewpointF,Max Humidity, Mean Humidity, Min Humidity, Max Sea Level PressureIn, Mean Sea Level PressureIn, Min Sea Level PressureIn, Max VisibilityMiles, Mean VisibilityMiles, Min VisibilityMiles, Max Wind SpeedMPH, Mean Wind SpeedMPH, Max Gust SpeedMPH,PrecipitationIn, CloudCover, Events, WindDirDegrees
2012-11-1,66,52,37,43,38,32,87,69,40,29.99,29.97,29.94,10,9,4,15,3,18,0.00,1,,5
2012-11-2,55,46,37,34,31,27,81,60,33,30.06,30.00,29.93,10,10,10,15,6,22,0.00,0,,71
2012-11-3,57,44,30,36,30,27,87,66,33,30.21,30.16,30.06,10,10,10,8,4,,0.00,1,,357
2012-11-4,60,48,35,45,37,30,87,69,39,30.20,30.11,30.01,10,10,4,16,3,20,0.04,4,Rain,167
2012-11-5,48,46,44,45,41,37,87,82,76,30.13,30.08,30.00,10,6,3,14,6,20,0.10,8,Rain,26
2012-11-6,59,48,37,41,35,28,87,65,33,30.06,30.00,29.94,10,9,4,22,11,33,0.00,3,,284
2012-11-7,55,45,35,34,32,28,81,65,36,30.18,30.11,30.06,10,10,7,10,5,,0.00,1,,310
2012-11-8,68,54,39,39,35,30,76,54,24,30.07,29.94,29.86,10,10,10,20,9,25,0.00,1,,168
2012-11-9,69,58,46,57,47,37,77,65,53,29.89,29.79,29.69,10,10,10,13,4,,0.00,1,,133
2012-11-10,77,70,62,59,56,54,82,62,47,29.68,29.61,29.53,10,10,7,32,18,44,0.28,3,Rain,185
2012-11-11,60,42,24,55,27,16,87,73,52,30.17,29.93,29.63,10,9,3,20,14,30,0.57,4,Rain,306
2012-11-12,42,33,24,21,18,16,80,59,34,30.39,30.28,30.17,10,10,10,22,7,29,0.00,0,,267
2012-11-13,55,38,21,34,26,18,86,62,26,30.40,30.34,30.28,10,10,10,12,2,,0.00,0,,175
2012-11-14,60,45,30,34,28,19,81,54,20,30.34,30.28,30.22,10,10,10,17,5,22,0.00,0,,192
2012-11-15,64,50,35,34,31,25,75,54,24,30.43,30.30,30.21,10,10,7,10,5,,0.00,1,,346
2012-11-16,59,44,28,36,30,23,86,64,33,30.47,30.40,30.33,10,10,10,8,2,,0.00,0,,174
2012-11-17,62,50,37,37,32,27,81,55,26,30.34,30.27,30.21,10,9,7,23,7,30,0.00,1,,166
2012-11-18,64,56,48,43,30,27,67,39,24,30.22,30.14,30.08,10,10,10,20,13,26,0.02,4,Rain,168
2012-11-19,66,52,37,46,39,32,87,63,35,30.11,30.06,30.01,10,10,7,18,7,23,0.00,1,,197
2012-11-20,64,50,37,41,35,28,81,64,26,30.23,30.17,30.10,10,8,4,9,3,,0.00,0,,310
2012-11-21,75,55,35,45,39,30,87,55,25,30.15,30.03,29.86,10,10,7,24,8,32,0.00,1,,195
2012-11-22,68,52,37,48,39,30,76,57,28,30.22,29.92,29.75,10,10,10,26,12,37,0.00,1,,252
2012-11-23,39,28,17,30,13,5,75,51,28,30.48,30.40,30.21,10,10,10,24,12,36,0.00,1,,313
2012-11-24,46,32,17,25,16,10,80,53,25,30.39,30.11,29.86,10,10,10,17,4,23,0.00,0,,171
2012-11-25,46,39,30,28,26,23,80,62,46,30.14,29.98,29.86,10,10,10,12,3,,0.00,1,,4
2012-11-26,37,26,15,28,17,7,80,59,38,30.45,30.34,30.14,10,10,5,17,7,21,0.00,3,Snow,15
2012-11-27,42,28,14,19,14,7,79,61,34,30.44,30.32,30.19,10,10,10,16,3,22,0.00,0,,191
2012-11-28,51,35,19,28,20,12,86,60,26,30.39,30.27,30.13,10,10,7,13,2,,0.00,0,,177
2012-11-29,57,42,28,36,30,21,86,68,44,30.12,30.01,29.94,10,10,7,10,3,,0.00,0,,186
2012-11-30,51,40,28,36,30,23,87,73,54,30.08,30.02,29.95,10,6,3,6,1,,0.00,0,,334